| time (UTC) | temp F | wind direction | speed knots | gust knots | rain 1hr in | rain 24hr in | rain mn in | humidity % | barometer mb |
| 20260507033425 | 47 | 253 | 0.0 | 0.0 | 0.00 | 0.00 | 0.00 | 99 | 1009.0 |
| 20260507032925 | 47 | 1 | 0.0 | 0.0 | 0.00 | 0.00 | 0.00 | 99 | 1009.0 |
| 20260507032426 | 47 | 279 | 0.9 | 0.9 | 0.00 | 0.00 | 0.00 | 99 | 1009.0 |
| 20260507031925 | 47 | 175 | 0.9 | 0.9 | 0.00 | 0.00 | 0.00 | 99 | 1009.0 |
| 20260507031428 | 47 | 96 | 0.9 | 1.7 | 0.00 | 0.00 | 0.00 | 99 | 1009.0 |
| 20260507030928 | 47 | 318 | 0.0 | 0.9 | 0.00 | 0.00 | 0.00 | 99 | 1009.0 |
| 20260507030428 | 47 | 118 | 0.0 | 0.0 | 0.00 | 0.00 | 0.00 | 99 | 1009.0 |
| 20260507025926 | 47 | 125 | 0.9 | 0.9 | 0.00 | 0.00 | 0.00 | 99 | 1009.0 |
| 20260507025427 | 48 | 329 | 0.9 | 0.9 | 0.00 | 0.00 | 0.00 | 99 | 1009.0 |
| 20260507024925 | 48 | 257 | 0.9 | 0.9 | 0.00 | 0.00 | 0.00 | 99 | 1009.0 |
| 20260507024428 | 48 | 184 | 0.9 | 1.7 | 0.00 | 0.00 | 0.00 | 99 | 1009.0 |
| 20260507023928 | 48 | 77 | 0.0 | 0.9 | 0.00 | 0.00 | 0.00 | 99 | 1009.0 |
| 20260507023427 | 48 | 115 | 0.0 | 0.9 | 0.00 | 0.00 | 0.00 | 99 | 1009.0 |
| 20260507022928 | 47 | 86 | 1.7 | 1.7 | 0.00 | 0.00 | 0.00 | 99 | 1009.0 |
| 20260507022428 | 47 | 280 | 0.0 | 0.0 | 0.00 | 0.00 | 0.00 | 99 | 1009.0 |
| 20260507021928 | 48 | 28 | 0.0 | 0.0 | 0.00 | 0.00 | 0.00 | 99 | 1009.0 |
| 20260507021428 | 48 | 82 | 0.0 | 0.0 | 0.00 | 0.00 | 0.00 | 99 | 1009.0 |
| 20260507020926 | 48 | 57 | 0.0 | 0.0 | 0.00 | 0.00 | 0.00 | 98 | 1009.0 |
| 20260507020427 | 48 | 245 | 0.9 | 1.7 | 0.00 | 0.00 | 0.00 | 98 | 1009.0 |
| 20260507015925 | 48 | 53 | 0.0 | 0.0 | 0.00 | 0.00 | 0.00 | 98 | 1009.0 |
| 20260507015426 | 47 | 332 | 0.9 | 0.9 | 0.00 | 0.00 | 0.00 | 98 | 1009.0 |
| 20260507014925 | 47 | 346 | 0.0 | 0.9 | 0.00 | 0.00 | 0.00 | 98 | 1009.0 |
| 20260507014427 | 47 | 151 | 0.9 | 0.9 | 0.00 | 0.00 | 0.00 | 98 | 1009.0 |
| 20260507013926 | 47 | 305 | 0.9 | 1.7 | 0.00 | 0.00 | 0.00 | 98 | 1009.0 |
| 20260507013428 | 47 | 104 | 0.0 | 0.9 | 0.00 | 0.00 | 0.00 | 98 | 1009.0 |
| 20260507012930 | 47 | 254 | 0.9 | 0.9 | 0.00 | 0.00 | 0.00 | 98 | 1009.0 |
| 20260507012427 | 47 | 94 | 0.0 | 0.0 | 0.00 | 0.00 | 0.00 | 98 | 1009.0 |
| 20260507011927 | 47 | 85 | 0.0 | 0.0 | 0.00 | 0.00 | 0.00 | 98 | 1009.0 |
| 20260507011428 | 47 | 72 | 0.0 | 0.0 | 0.00 | 0.00 | 0.00 | 98 | 1009.0 |
| 20260507010926 | 47 | 231 | 0.0 | 0.0 | 0.00 | 0.00 | 0.00 | 98 | 1009.0 |
| 20260507010425 | 48 | 23 | 0.0 | 0.0 | 0.00 | 0.00 | 0.00 | 97 | 1009.0 |
| 20260507005928 | 48 | 152 | 1.7 | 1.7 | 0.00 | 0.00 | 0.00 | 97 | 1009.0 |
| 20260507005427 | 48 | 65 | 0.0 | 0.0 | 0.00 | 0.00 | 0.00 | 97 | 1009.0 |
| 20260507004930 | 48 | 94 | 0.0 | 0.0 | 0.00 | 0.00 | 0.00 | 97 | 1009.0 |
| 20260507004428 | 48 | 278 | 0.0 | 0.9 | 0.00 | 0.00 | 0.00 | 97 | 1009.0 |
| 20260507003925 | 48 | 57 | 0.0 | 0.9 | 0.00 | 0.00 | 0.00 | 97 | 1009.0 |
| 20260507003427 | 49 | 120 | 0.0 | 0.9 | 0.00 | 0.00 | 0.00 | 98 | 1009.0 |
| 20260507002927 | 49 | 329 | 0.0 | 0.0 | 0.00 | 0.00 | 0.00 | 98 | 1009.0 |
| 20260507002428 | 49 | 347 | 0.0 | 0.0 | 0.00 | 0.00 | 0.00 | 99 | 1009.0 |
| 20260507001458 | 49 | 242 | 0.0 | 0.9 | 0.00 | 0.00 | 0.00 | 98 | 1009.0 |
| 20260507000925 | 49 | 313 | 0.0 | 0.0 | 0.00 | 0.00 | 0.00 | 99 | 1009.0 |
| 20260507000427 | 49 | 349 | 0.0 | 0.0 | 0.00 | 0.00 | 0.00 | 98 | 1009.0 |
| 20260506235928 | 49 | 346 | 0.0 | 0.0 | 0.00 | 0.00 | 0.00 | 99 | 1009.0 |
| 20260506235426 | 49 | 235 | 0.0 | 0.9 | 0.00 | 0.00 | 0.00 | 99 | 1009.0 |
| 20260506234925 | 49 | 192 | 0.0 | 0.9 | 0.00 | 0.00 | 0.00 | 99 | 1009.0 |
| 20260506234426 | 49 | 239 | 0.0 | 0.0 | 0.00 | 0.00 | 0.00 | 99 | 1009.0 |
| 20260506233925 | 49 | 128 | 2.6 | 2.6 | 0.00 | 0.00 | 0.00 | 99 | 1009.0 |
| 20260506233426 | 50 | 347 | 0.0 | 0.0 | 0.00 | 0.00 | 0.00 | 99 | 1009.0 |
| 20260506232927 | 50 | 326 | 0.0 | 0.0 | 0.00 | 0.00 | 0.00 | 99 | 1009.0 |
| 20260506232426 | 50 | 218 | 0.0 | 0.9 | 0.00 | 0.00 | 0.00 | 99 | 1009.0 |
| 20260506231927 | 50 | 74 | 0.0 | 0.0 | 0.00 | 0.00 | 0.00 | 99 | 1009.0 |
| 20260506231427 | 50 | 55 | 0.0 | 0.9 | 0.00 | 0.00 | 0.00 | 99 | 1009.0 |
| 20260506230927 | 50 | 315 | 0.0 | 0.9 | 0.00 | 0.00 | 0.00 | 99 | 1009.0 |
| 20260506230427 | 50 | 22 | 0.0 | 0.0 | 0.00 | 0.00 | 0.00 | 99 | 1009.0 |
| 20260506225928 | 50 | 76 | 0.0 | 0.0 | 0.00 | 0.00 | 0.00 | 99 | 1009.0 |
| 20260506225427 | 50 | 176 | 0.9 | 0.9 | 0.00 | 0.00 | 0.00 | 99 | 1009.0 |
| 20260506224925 | 50 | 250 | 0.9 | 0.9 | 0.00 | 0.00 | 0.00 | 99 | 1008.0 |
| 20260506224427 | 50 | 291 | 0.9 | 0.9 | 0.00 | 0.00 | 0.00 | 99 | 1009.0 |
| 20260506223928 | 50 | 210 | 0.0 | 0.0 | 0.00 | 0.00 | 0.00 | 99 | 1008.0 |
| 20260506223428 | 50 | 269 | 0.0 | 0.0 | 0.00 | 0.00 | 0.00 | 99 | 1009.0 |
| 20260506222925 | 50 | 103 | 0.0 | 0.0 | 0.00 | 0.00 | 0.00 | 99 | 1008.0 |
| 20260506222426 | 50 | 274 | 0.0 | 0.9 | 0.00 | 0.00 | 0.00 | 99 | 1008.0 |
| 20260506221927 | 50 | 318 | 0.0 | 0.0 | 0.00 | 0.00 | 0.00 | 99 | 1008.0 |
| 20260506221426 | 50 | 343 | 0.0 | 0.9 | 0.00 | 0.00 | 0.00 | 99 | 1008.0 |
| 20260506220928 | 50 | 249 | 0.9 | 0.9 | 0.00 | 0.00 | 0.00 | 99 | 1008.0 |
| 20260506220428 | 50 | 249 | 0.9 | 0.9 | 0.00 | 0.00 | 0.00 | 99 | 1008.0 |
| 20260506215925 | 51 | 337 | 0.0 | 0.9 | 0.00 | 0.00 | 0.21 | 99 | 1008.0 |
| 20260506215426 | 51 | 0 | 0.9 | 0.9 | 0.00 | 0.00 | 0.21 | 99 | 1008.0 |
| 20260506214925 | 51 | 118 | 0.9 | 0.9 | 0.00 | 0.00 | 0.21 | 99 | 1008.0 |
| 20260506214425 | 51 | 257 | 0.9 | 1.7 | 0.00 | 0.00 | 0.21 | 99 | 1008.0 |
| 20260506213925 | 51 | 137 | 0.9 | 0.9 | 0.00 | 0.00 | 0.21 | 99 | 1008.0 |
| 20260506213428 | 51 | 308 | 0.9 | 0.9 | 0.00 | 0.00 | 0.21 | 99 | 1008.0 |
| 20260506212927 | 51 | 137 | 0.9 | 0.9 | 0.00 | 0.00 | 0.21 | 99 | 1008.0 |
| 20260506211957 | 51 | 12 | 0.9 | 2.6 | 0.00 | 0.00 | 0.21 | 99 | 1008.0 |
| 20260506211428 | 51 | 7 | 0.0 | 0.0 | 0.00 | 0.00 | 0.21 | 99 | 1008.0 |
| 20260506210925 | 51 | 40 | 0.0 | 0.0 | 0.00 | 0.00 | 0.21 | 99 | 1008.0 |
| 20260506210427 | 51 | 66 | 0.0 | 0.0 | 0.00 | 0.00 | 0.21 | 99 | 1008.0 |
| 20260506205926 | 51 | 106 | 1.7 | 1.7 | 0.00 | 0.00 | 0.21 | 99 | 1008.0 |
| 20260506205425 | 51 | 280 | 0.0 | 0.0 | 0.00 | 0.00 | 0.21 | 99 | 1008.0 |
| 20260506204927 | 51 | 221 | 0.0 | 0.9 | 0.00 | 0.00 | 0.21 | 99 | 1008.0 |
| 20260506204427 | 51 | 38 | 0.9 | 1.7 | 0.00 | 0.00 | 0.21 | 99 | 1008.0 |
| 20260506203927 | 51 | 290 | 0.9 | 0.9 | 0.00 | 0.00 | 0.21 | 99 | 1008.0 |
| 20260506203427 | 52 | 278 | 0.0 | 0.9 | 0.00 | 0.00 | 0.21 | 99 | 1008.0 |
| 20260506202925 | 52 | 312 | 0.9 | 1.7 | 0.00 | 0.00 | 0.21 | 99 | 1008.0 |
| 20260506202427 | 52 | 83 | 0.0 | 0.0 | 0.00 | 0.00 | 0.21 | 99 | 1008.0 |
| 20260506201928 | 52 | 43 | 0.0 | 0.0 | 0.00 | 0.00 | 0.21 | 99 | 1008.0 |
| 20260506201428 | 52 | 347 | 0.0 | 0.0 | 0.00 | 0.00 | 0.21 | 99 | 1007.0 |
| 20260506200928 | 51 | 14 | 0.0 | 0.0 | 0.00 | 0.00 | 0.21 | 99 | 1008.0 |
| 20260506200425 | 51 | 22 | 0.0 | 0.0 | 0.00 | 0.00 | 0.21 | 99 | 1008.0 |
| 20260506195927 | 51 | 313 | 0.0 | 0.9 | 0.00 | 0.00 | 0.21 | 99 | 1008.0 |
| 20260506195427 | 51 | 25 | 0.0 | 0.0 | 0.00 | 0.00 | 0.21 | 99 | 1008.0 |
| 20260506194929 | 51 | 24 | 0.0 | 0.0 | 0.00 | 0.00 | 0.21 | 99 | 1007.0 |
| 20260506194427 | 51 | 289 | 0.0 | 0.0 | 0.00 | 0.00 | 0.21 | 99 | 1007.0 |
| 20260506193929 | 52 | 17 | 0.0 | 0.0 | 0.00 | 0.00 | 0.21 | 99 | 1007.0 |
| 20260506193427 | 52 | 3 | 0.0 | 0.0 | 0.00 | 0.00 | 0.21 | 99 | 1007.0 |
| 20260506192927 | 52 | 41 | 0.0 | 0.0 | 0.00 | 0.00 | 0.21 | 99 | 1007.0 |
| 20260506192429 | 52 | 14 | 0.0 | 0.0 | 0.00 | 0.00 | 0.21 | 99 | 1007.0 |
| 20260506191928 | 52 | 217 | 0.0 | 0.0 | 0.00 | 0.00 | 0.21 | 99 | 1007.0 |
| 20260506191427 | 52 | 357 | 0.0 | 0.0 | 0.00 | 0.00 | 0.21 | 99 | 1007.0 |
| 20260506190930 | 52 | 327 | 0.0 | 0.9 | 0.00 | 0.00 | 0.21 | 99 | 1007.0 |
| 20260506190428 | 52 | 78 | 0.0 | 0.0 | 0.00 | 0.00 | 0.21 | 99 | 1007.0 |
| 20260506185927 | 52 | 82 | 0.0 | 0.0 | 0.00 | 0.00 | 0.21 | 99 | 1007.0 |
| 20260506185428 | 52 | 106 | 0.0 | 0.0 | 0.00 | 0.00 | 0.21 | 99 | 1007.0 |
| 20260506184928 | 52 | 0 | 0.9 | 1.7 | 0.00 | 0.00 | 0.21 | 99 | 1007.0 |
| 20260506184427 | 52 | 52 | 0.0 | 0.0 | 0.00 | 0.00 | 0.21 | 99 | 1007.0 |
| 20260506183927 | 52 | 210 | 2.6 | 2.6 | 0.00 | 0.00 | 0.21 | 99 | 1006.0 |
| 20260506183429 | 53 | 296 | 0.9 | 1.7 | 0.00 | 0.00 | 0.21 | 99 | 1006.0 |
| 20260506182925 | 53 | 99 | 0.0 | 0.0 | 0.00 | 0.00 | 0.21 | 99 | 1006.0 |
| 20260506182427 | 53 | 210 | 0.0 | 0.9 | 0.00 | 0.00 | 0.21 | 99 | 1006.0 |
| 20260506181926 | 53 | 245 | 1.7 | 2.6 | 0.07 | 0.00 | 0.21 | 99 | 1006.0 |
| 20260506181427 | 53 | 311 | 0.0 | 0.9 | 0.07 | 0.00 | 0.21 | 99 | 1006.0 |
| 20260506180927 | 53 | 334 | 1.7 | 1.7 | 0.00 | 0.00 | 0.20 | 99 | 1006.0 |
| 20260506180426 | 53 | 274 | 1.7 | 2.6 | 0.00 | 0.00 | 0.20 | 99 | 1006.0 |
| 20260506175929 | 53 | 40 | 0.0 | 0.0 | 0.12 | 0.00 | 0.20 | 99 | 1006.0 |
| 20260506175428 | 53 | 277 | 0.9 | 1.7 | 0.35 | 0.00 | 0.20 | 99 | 1006.0 |
| 20260506174925 | 53 | 320 | 1.7 | 2.6 | 0.42 | 0.00 | 0.18 | 99 | 1006.0 |
| 20260506174426 | 53 | 268 | 2.6 | 4.3 | 0.28 | 0.00 | 0.13 | 99 | 1006.0 |
| 20260506173928 | 53 | 259 | 0.9 | 0.9 | 0.24 | 0.00 | 0.10 | 99 | 1006.0 |
| 20260506173428 | 53 | 227 | 0.9 | 0.9 | 0.19 | 0.00 | 0.07 | 98 | 1006.0 |
| 20260506172925 | 53 | 318 | 0.0 | 0.9 | 0.14 | 0.00 | 0.06 | 98 | 1006.0 |
| 20260506172428 | 53 | 280 | 3.5 | 6.1 | 0.07 | 0.00 | 0.05 | 97 | 1006.0 |
| 20260506171928 | 54 | 260 | 3.5 | 4.3 | 0.05 | 0.00 | 0.04 | 97 | 1006.0 |
| 20260506171426 | 54 | 265 | 2.6 | 2.6 | 0.12 | 0.00 | 0.04 | 97 | 1005.0 |
| 20260506170928 | 54 | 301 | 0.9 | 1.7 | 0.19 | 0.00 | 0.03 | 97 | 1005.0 |
| 20260506170428 | 55 | 252 | 4.3 | 6.1 | 0.12 | 0.00 | 0.02 | 96 | 1005.0 |
| 20260506165925 | 55 | 324 | 5.2 | 7.8 | 0.00 | 0.00 | 0.00 | 94 | 1005.0 |
| 20260506165427 | 56 | 227 | 4.3 | 6.1 | 0.00 | 0.00 | 0.00 | 93 | 1005.0 |
| 20260506164927 | 56 | 288 | 4.3 | 7.0 | 0.00 | 0.00 | 0.00 | 92 | 1005.0 |
| 20260506164426 | 56 | 234 | 3.5 | 5.2 | 0.00 | 0.00 | 0.00 | 92 | 1005.0 |
| 20260506163926 | 56 | 242 | 3.5 | 4.3 | 0.00 | 0.00 | 0.00 | 90 | 1005.0 |
| 20260506163428 | 56 | 268 | 3.5 | 5.2 | 0.00 | 0.00 | 0.00 | 90 | 1005.0 |
| 20260506162927 | 56 | 309 | 2.6 | 2.6 | 0.00 | 0.00 | 0.00 | 88 | 1005.0 |
| 20260506162427 | 56 | 240 | 1.7 | 1.7 | 0.00 | 0.00 | 0.00 | 87 | 1005.0 |
| 20260506161928 | 56 | 254 | 3.5 | 5.2 | 0.00 | 0.00 | 0.00 | 87 | 1005.0 |
| 20260506161428 | 56 | 288 | 5.2 | 7.8 | 0.00 | 0.00 | 0.00 | 88 | 1005.0 |
| 20260506160928 | 57 | 311 | 4.3 | 6.1 | 0.00 | 0.00 | 0.00 | 88 | 1005.0 |
| 20260506160427 | 58 | 279 | 2.6 | 4.3 | 0.00 | 0.00 | 0.00 | 89 | 1005.0 |
| 20260506155925 | 58 | 260 | 0.9 | 1.7 | 0.00 | 0.00 | 0.00 | 87 | 1005.0 |
| 20260506155427 | 58 | 184 | 1.7 | 2.6 | 0.00 | 0.00 | 0.00 | 83 | 1004.0 |
| 20260506154928 | 59 | 265 | 3.5 | 5.2 | 0.00 | 0.00 | 0.00 | 79 | 1004.0 |
| 20260506154425 | 60 | 261 | 1.7 | 1.7 | 0.00 | 0.00 | 0.00 | 76 | 1004.0 |
| 20260506153927 | 60 | 260 | 2.6 | 2.6 | 0.00 | 0.00 | 0.00 | 75 | 1004.0 |
| 20260506153428 | 61 | 99 | 1.7 | 1.7 | 0.00 | 0.00 | 0.00 | 74 | 1004.0 |
| 20260506152926 | 61 | 69 | 0.0 | 0.0 | 0.00 | 0.00 | 0.00 | 74 | 1004.0 |
| 20260506152426 | 61 | 142 | 0.9 | 0.9 | 0.00 | 0.00 | 0.00 | 74 | 1004.0 |
| 20260506151927 | 62 | 288 | 1.7 | 1.7 | 0.00 | 0.00 | 0.00 | 73 | 1004.0 |
| 20260506151428 | 62 | 294 | 0.9 | 1.7 | 0.00 | 0.00 | 0.00 | 69 | 1004.0 |
| 20260506150926 | 62 | 325 | 0.0 | 0.9 | 0.00 | 0.00 | 0.00 | 68 | 1004.0 |
| 20260506150432 | 62 | 38 | 0.0 | 0.0 | 0.00 | 0.00 | 0.00 | 69 | 1004.0 |
| 20260506145928 | 61 | 262 | 2.6 | 2.6 | 0.00 | 0.00 | 0.00 | 70 | 1004.0 |
| 20260506145428 | 61 | 225 | 0.9 | 1.7 | 0.00 | 0.00 | 0.00 | 72 | 1004.0 |
| 20260506144928 | 62 | 248 | 2.6 | 2.6 | 0.00 | 0.00 | 0.00 | 72 | 1004.0 |
| 20260506144426 | 62 | 217 | 1.7 | 1.7 | 0.00 | 0.00 | 0.00 | 73 | 1004.0 |
| 20260506143928 | 62 | 269 | 2.6 | 4.3 | 0.00 | 0.00 | 0.00 | 73 | 1004.0 |
| 20260506143427 | 63 | 259 | 5.2 | 6.1 | 0.00 | 0.00 | 0.00 | 74 | 1004.0 |
| 20260506142927 | 65 | 256 | 2.6 | 2.6 | 0.00 | 0.00 | 0.00 | 67 | 1004.0 |
| 20260506142426 | 67 | 221 | 0.9 | 1.7 | 0.00 | 0.00 | 0.00 | 64 | 1004.0 |
| 20260506141928 | 67 | 38 | 0.0 | 0.9 | 0.00 | 0.00 | 0.00 | 55 | 1004.0 |
| 20260506141426 | 67 | 190 | 0.0 | 0.0 | 0.00 | 0.00 | 0.00 | 57 | 1004.0 |
| 20260506140930 | 66 | 282 | 0.0 | 0.9 | 0.00 | 0.00 | 0.00 | 59 | 1004.0 |
| 20260506140431 | 66 | 353 | 0.9 | 0.9 | 0.00 | 0.00 | 0.00 | 59 | 1004.0 |
| 20260506135928 | 67 | 353 | 0.0 | 0.0 | 0.00 | 0.00 | 0.00 | 59 | 1004.0 |
| 20260506135428 | 66 | 3 | 0.0 | 0.9 | 0.00 | 0.00 | 0.00 | 58 | 1004.0 |
| 20260506134927 | 66 | 320 | 0.0 | 0.9 | 0.00 | 0.00 | 0.00 | 59 | 1004.0 |
| 20260506134428 | 66 | 333 | 0.0 | 0.0 | 0.00 | 0.00 | 0.00 | 62 | 1004.0 |
| 20260506133926 | 65 | 32 | 0.0 | 0.0 | 0.00 | 0.00 | 0.00 | 62 | 1004.0 |
| 20260506133428 | 65 | 284 | 0.9 | 0.9 | 0.00 | 0.00 | 0.00 | 60 | 1004.0 |
| 20260506132927 | 66 | 299 | 0.0 | 0.9 | 0.00 | 0.00 | 0.00 | 58 | 1004.0 |
| 20260506132426 | 66 | 324 | 0.0 | 0.0 | 0.00 | 0.00 | 0.00 | 59 | 1004.0 |
| 20260506131926 | 66 | 293 | 0.9 | 1.7 | 0.00 | 0.00 | 0.00 | 58 | 1004.0 |
| 20260506131427 | 66 | 252 | 0.9 | 0.9 | 0.00 | 0.00 | 0.00 | 60 | 1004.0 |
| 20260506130926 | 65 | 34 | 0.0 | 0.0 | 0.00 | 0.00 | 0.00 | 61 | 1004.0 |
| 20260506130428 | 65 | 62 | 0.0 | 0.0 | 0.00 | 0.00 | 0.00 | 62 | 1004.0 |
| 20260506125927 | 65 | 28 | 0.9 | 0.9 | 0.00 | 0.00 | 0.00 | 60 | 1004.0 |
| 20260506125425 | 65 | 19 | 0.9 | 0.9 | 0.00 | 0.00 | 0.00 | 60 | 1004.0 |
| 20260506124927 | 65 | 39 | 0.9 | 0.9 | 0.00 | 0.00 | 0.00 | 60 | 1004.0 |
| 20260506124428 | 65 | 30 | 0.0 | 0.0 | 0.00 | 0.00 | 0.00 | 62 | 1004.0 |
| 20260506123925 | 66 | 11 | 1.7 | 1.7 | 0.00 | 0.00 | 0.00 | 60 | 1004.0 |
| 20260506123425 | 66 | 45 | 0.0 | 0.9 | 0.00 | 0.00 | 0.00 | 61 | 1004.0 |
| 20260506122928 | 67 | 33 | 0.9 | 1.7 | 0.00 | 0.00 | 0.00 | 59 | 1004.0 |
| 20260506122428 | 66 | 22 | 0.9 | 1.7 | 0.00 | 0.00 | 0.00 | 60 | 1004.0 |
| 20260506121925 | 66 | 33 | 2.6 | 2.6 | 0.00 | 0.00 | 0.00 | 61 | 1004.0 |
| 20260506121428 | 67 | 359 | 0.9 | 1.7 | 0.00 | 0.00 | 0.00 | 60 | 1004.0 |
| 20260506120927 | 69 | 26 | 0.9 | 0.9 | 0.00 | 0.00 | 0.00 | 58 | 1004.0 |
| 20260506120426 | 70 | 48 | 0.9 | 0.9 | 0.00 | 0.00 | 0.00 | 59 | 1004.0 |
| 20260506115928 | 69 | 82 | 0.9 | 0.9 | 0.00 | 0.00 | 0.00 | 60 | 1004.0 |
| 20260506115427 | 67 | 16 | 0.0 | 0.0 | 0.00 | 0.00 | 0.00 | 62 | 1005.0 |
| 20260506114926 | 66 | 30 | 0.0 | 0.9 | 0.00 | 0.00 | 0.00 | 63 | 1005.0 |
| 20260506114426 | 66 | 25 | 0.9 | 0.9 | 0.00 | 0.00 | 0.00 | 63 | 1005.0 |
| 20260506113927 | 67 | 54 | 1.7 | 1.7 | 0.00 | 0.00 | 0.00 | 63 | 1004.0 |
| 20260506113429 | 68 | 228 | 0.9 | 1.7 | 0.00 | 0.00 | 0.00 | 61 | 1005.0 |
| 20260506112929 | 68 | 89 | 0.0 | 0.9 | 0.00 | 0.00 | 0.00 | 65 | 1005.0 |
| 20260506112429 | 67 | 269 | 0.9 | 0.9 | 0.00 | 0.00 | 0.00 | 63 | 1005.0 |
| 20260506111928 | 67 | 16 | 0.9 | 0.9 | 0.00 | 0.00 | 0.00 | 62 | 1005.0 |
| 20260506111427 | 67 | 7 | 0.0 | 0.9 | 0.00 | 0.00 | 0.00 | 63 | 1005.0 |
| 20260506110927 | 66 | 261 | 0.9 | 0.9 | 0.00 | 0.00 | 0.00 | 64 | 1005.0 |
| 20260506110428 | 66 | 49 | 0.0 | 0.9 | 0.00 | 0.00 | 0.00 | 68 | 1005.0 |
| 20260506105929 | 66 | 251 | 0.9 | 0.9 | 0.00 | 0.00 | 0.00 | 66 | 1005.0 |
| 20260506104940 | 65 | 283 | 0.9 | 0.9 | 0.00 | 0.00 | 0.00 | 67 | 1005.0 |
| 20260506104429 | 66 | 324 | 0.9 | 0.9 | 0.00 | 0.00 | 0.00 | 66 | 1005.0 |
| 20260506103929 | 65 | 29 | 0.0 | 0.0 | 0.00 | 0.00 | 0.00 | 66 | 1005.0 |
| 20260506103429 | 65 | 238 | 0.9 | 0.9 | 0.00 | 0.00 | 0.00 | 68 | 1005.0 |
| 20260506102930 | 65 | 37 | 0.9 | 0.9 | 0.00 | 0.00 | 0.00 | 68 | 1005.0 |
| 20260506102428 | 64 | 326 | 0.9 | 0.9 | 0.00 | 0.00 | 0.00 | 69 | 1005.0 |
| 20260506101927 | 64 | 351 | 0.0 | 0.0 | 0.00 | 0.00 | 0.00 | 70 | 1005.0 |
| 20260506101429 | 63 | 25 | 1.7 | 1.7 | 0.00 | 0.00 | 0.00 | 71 | 1006.0 |
| 20260506100927 | 63 | 206 | 0.9 | 0.9 | 0.00 | 0.00 | 0.00 | 74 | 1005.0 |
| 20260506100428 | 62 | 341 | 0.0 | 0.0 | 0.00 | 0.00 | 0.00 | 72 | 1005.0 |
| 20260506095927 | 62 | 36 | 0.0 | 0.0 | 0.00 | 0.00 | 0.00 | 75 | 1006.0 |
| 20260506095427 | 64 | 242 | 2.6 | 2.6 | 0.00 | 0.00 | 0.00 | 70 | 1006.0 |
| 20260506094928 | 64 | 81 | 1.7 | 1.7 | 0.00 | 0.00 | 0.00 | 72 | 1005.0 |
| 20260506094428 | 62 | 286 | 0.9 | 0.9 | 0.00 | 0.00 | 0.00 | 73 | 1005.0 |
| 20260506093925 | 62 | 318 | 0.0 | 0.0 | 0.00 | 0.00 | 0.00 | 72 | 1006.0 |
| 20260506093428 | 62 | 26 | 0.9 | 0.9 | 0.00 | 0.00 | 0.00 | 73 | 1006.0 |
| 20260506092926 | 61 | 293 | 0.0 | 0.9 | 0.00 | 0.00 | 0.00 | 75 | 1006.0 |
| 20260506092426 | 61 | 293 | 0.0 | 0.0 | 0.00 | 0.00 | 0.00 | 75 | 1006.0 |
| 20260506091928 | 61 | 258 | 1.7 | 1.7 | 0.00 | 0.00 | 0.00 | 76 | 1005.0 |
| 20260506091429 | 62 | 282 | 0.9 | 0.9 | 0.00 | 0.00 | 0.00 | 75 | 1006.0 |
| 20260506090929 | 61 | 45 | 0.0 | 0.0 | 0.00 | 0.00 | 0.00 | 77 | 1006.0 |
| 20260506090427 | 61 | 32 | 0.0 | 0.9 | 0.00 | 0.00 | 0.00 | 77 | 1005.0 |
| 20260506085927 | 61 | 259 | 0.9 | 0.9 | 0.00 | 0.00 | 0.00 | 75 | 1005.0 |
| 20260506085426 | 61 | 2 | 0.9 | 0.9 | 0.00 | 0.00 | 0.00 | 76 | 1006.0 |
| 20260506084925 | 61 | 295 | 0.9 | 1.7 | 0.00 | 0.00 | 0.00 | 76 | 1006.0 |
| 20260506084428 | 60 | 290 | 3.5 | 4.3 | 0.00 | 0.00 | 0.00 | 76 | 1005.0 |
| 20260506083927 | 61 | 256 | 2.6 | 2.6 | 0.00 | 0.00 | 0.00 | 76 | 1005.0 |
| 20260506083427 | 61 | 285 | 0.9 | 1.7 | 0.00 | 0.00 | 0.00 | 77 | 1006.0 |
| 20260506082927 | 60 | 40 | 0.9 | 0.9 | 0.00 | 0.00 | 0.00 | 76 | 1006.0 |
| 20260506082428 | 60 | 276 | 0.9 | 0.9 | 0.00 | 0.00 | 0.00 | 77 | 1006.0 |
| 20260506081927 | 60 | 284 | 0.9 | 1.7 | 0.00 | 0.00 | 0.00 | 77 | 1005.0 |
| 20260506081425 | 60 | 278 | 0.9 | 0.9 | 0.00 | 0.00 | 0.00 | 77 | 1006.0 |
| 20260506080927 | 60 | 89 | 0.0 | 0.0 | 0.00 | 0.00 | 0.00 | 77 | 1006.0 |
| 20260506080428 | 60 | 240 | 0.9 | 0.9 | 0.00 | 0.00 | 0.00 | 76 | 1006.0 |
| 20260506073428 | 60 | 70 | 0.0 | 0.0 | 0.00 | 0.00 | 0.00 | 77 | 1006.0 |
| 20260506072927 | 60 | 229 | 0.9 | 0.9 | 0.00 | 0.00 | 0.00 | 79 | 1006.0 |
| 20260506072426 | 60 | 185 | 0.9 | 0.9 | 0.00 | 0.00 | 0.00 | 78 | 1006.0 |
| 20260506071928 | 59 | 35 | 0.0 | 0.0 | 0.00 | 0.00 | 0.00 | 78 | 1006.0 |
| 20260506071427 | 60 | 182 | 0.0 | 0.9 | 0.00 | 0.00 | 0.00 | 78 | 1006.0 |
| 20260506070927 | 60 | 31 | 0.0 | 0.0 | 0.00 | 0.00 | 0.00 | 78 | 1006.0 |
| 20260506070426 | 59 | 255 | 0.9 | 1.7 | 0.00 | 0.00 | 0.00 | 79 | 1006.0 |
| 20260506062431 | 57 | 57 | 0.0 | 0.0 | 0.00 | 0.00 | 0.00 | 87 | 1006.0 |
| 20260506061928 | 55 | 41 | 0.0 | 0.0 | 0.00 | 0.00 | 0.00 | 90 | 1006.0 |
| 20260506061425 | 54 | 321 | 0.0 | 0.9 | 0.00 | 0.00 | 0.00 | 92 | 1006.0 |
| 20260506060927 | 53 | 1 | 0.0 | 0.9 | 0.00 | 0.00 | 0.00 | 94 | 1006.0 |
| 20260506060428 | 52 | 346 | 0.0 | 0.0 | 0.00 | 0.00 | 0.00 | 96 | 1006.0 |
| 20260506050927 | 49 | 29 | 0.0 | 0.0 | 0.00 | 0.00 | 0.00 | 99 | 1006.0 |
| 20260506050425 | 49 | 46 | 0.0 | 0.0 | 0.00 | 0.00 | 0.00 | 99 | 1006.0 |
| 20260506044925 | 48 | 23 | 0.0 | 0.0 | 0.00 | 0.00 | 0.00 | 99 | 1006.0 |
| 20260506044426 | 48 | 26 | 0.0 | 0.0 | 0.00 | 0.00 | 0.00 | 99 | 1006.0 |
| 20260506043925 | 47 | 23 | 0.0 | 0.0 | 0.00 | 0.00 | 0.00 | 99 | 1006.0 |
| 20260506043426 | 47 | 23 | 0.0 | 0.0 | 0.00 | 0.00 | 0.00 | 99 | 1006.0 |
| 20260506042926 | 47 | 22 | 0.0 | 0.0 | 0.00 | 0.00 | 0.00 | 99 | 1006.0 |
| 20260506042427 | 47 | 22 | 0.0 | 0.0 | 0.00 | 0.00 | 0.00 | 99 | 1007.0 |
| 20260506041927 | 47 | 42 | 0.0 | 0.0 | 0.00 | 0.00 | 0.00 | 99 | 1006.0 |
| 20260506041426 | 47 | 27 | 0.0 | 0.0 | 0.00 | 0.00 | 0.00 | 99 | 1006.0 |
| 20260506040927 | 47 | 31 | 0.0 | 0.0 | 0.00 | 0.00 | 0.00 | 99 | 1007.0 |
| 20260506040425 | 47 | 22 | 0.0 | 0.0 | 0.00 | 0.00 | 0.00 | 99 | 1006.0 |
| 20260506035927 | 46 | 22 | 0.0 | 0.0 | 0.00 | 0.00 | 0.00 | 99 | 1006.0 |
| 20260506035427 | 46 | 22 | 0.0 | 0.0 | 0.00 | 0.00 | 0.00 | 99 | 1006.0 |
| 20260506034925 | 46 | 23 | 0.0 | 0.0 | 0.00 | 0.00 | 0.00 | 99 | 1006.0 |
| 20260506034426 | 47 | 23 | 0.0 | 0.0 | 0.00 | 0.00 | 0.00 | 99 | 1007.0 |
| 20260506033925 | 47 | 23 | 0.0 | 0.0 | 0.00 | 0.00 | 0.00 | 99 | 1006.0 |